This is the latest recevied weather packets stored in our database for station/object KB3UMW-13. If no packets are shown the sender has not sent any weather packets the latest 10 day(s).
| Time | Temp. | Humidity | Pressure | Rain* | Wind** | Luminosity | Snow |
|---|---|---|---|---|---|---|---|
| 1778026769 | 12.78° C | 75% | 1011.4 hPa | 0 mm | - | 1 W/m² | - |
| 1778026467 | 13.33° C | 74% | 1011.1 hPa | 0 mm | - | 2 W/m² | - |
| 1778026164 | 13.89° C | 74% | 1011.2 hPa | 0 mm | - | 3 W/m² | - |
| 1778025861 | 14.44° C | 70% | 1011 hPa | 0 mm | - | 5 W/m² | - |
| 1778025558 | 15° C | 69% | 1011 hPa | 0 mm | - | 6 W/m² | - |
| 1778025256 | 15.56° C | 65% | 1011 hPa | 0 mm | - | 8 W/m² | - |
| 1778024953 | 16.67° C | 63% | 1011.1 hPa | 0 mm | - | 10 W/m² | - |
| 1778024650 | 17.22° C | 60% | 1010.8 hPa | 0 mm | - | 13 W/m² | - |
| 1778024347 | 17.22° C | 58% | 1010.7 hPa | 0 mm | - | 18 W/m² | - |
| 1778024045 | 17.22° C | 61% | 1010.8 hPa | 0 mm | - | 30 W/m² | - |
| 1778023742 | 17.22° C | 63% | 1010.6 hPa | 0 mm | - | 37 W/m² | - |
| 1778023440 | 17.78° C | 60% | 1010.7 hPa | 0 mm | - | 39 W/m² | - |
| 1778023136 | 17.78° C | 59% | 1010.6 hPa | 0 mm | - | 44 W/m² | - |
| 1778022834 | 18.33° C | 57% | 1011.1 hPa | 0 mm | - | 49 W/m² | - |
| 1778022532 | 18.89° C | 55% | 1010.7 hPa | 0 mm | - | 43 W/m² | - |
| 1778022229 | 18.89° C | 53% | 1011 hPa | 0 mm | - | 44 W/m² | - |
| 1778021925 | 19.44° C | 53% | 1011.1 hPa | 0 mm | - | 69 W/m² | - |
| 1778021623 | 19.44° C | 52% | 1010.8 hPa | 0 mm | - | 92 W/m² | - |
| 1778021317 | 19.44° C | 55% | 1011 hPa | 0 mm | - | 87 W/m² | - |
| 1778021016 | 19.44° C | 51% | 1011.1 hPa | 0 mm | - | 80 W/m² | - |
| 1778020712 | 19.44° C | 50% | 1010.8 hPa | 0 mm | - | 85 W/m² | - |
| 1778020409 | 18.89° C | 55% | 1011.1 hPa | 0 mm | - | 91 W/m² | - |
| 1778020105 | 18.89° C | 53% | 1011.4 hPa | 0 mm | - | 72 W/m² | - |
| 1778019801 | 19.44° C | 52% | 1011.3 hPa | 0 mm | - | 56 W/m² | - |
| 1778019499 | 19.44° C | 49% | 1011.1 hPa | 0 mm | - | 56 W/m² | - |
* Rain latest hour (hover to see other rain measurements)
** Current wind speed in m/s (hover to see current wind gust speed)